TimeEDT,TemperatureF,Dew PointF,Humidity,Sea Level PressureIn,VisibilityMPH,Wind Direction,Wind SpeedMPH,Gust SpeedMPH,PrecipitationIn,Events,Conditions,WindDirDegrees,DateUTC
12:15 AM,50.9,41.7,71,29.99,10.0,Calm,Calm,-,N/A,,Clear,0,2012-10-21 04:15:00
12:35 AM,48.2,42.4,80,29.99,10.0,North,3.5,-,N/A,,Clear,10,2012-10-21 04:35:00
12:55 AM,46.2,42.8,88,30.00,10.0,Calm,Calm,-,N/A,,Clear,0,2012-10-21 04:55:00
1:15 AM,45.7,42.6,89,30.00,10.0,Calm,Calm,-,N/A,,Clear,0,2012-10-21 05:15:00
1:35 AM,45.7,42.6,89,30.00,10.0,Calm,Calm,-,N/A,,Clear,0,2012-10-21 05:35:00
1:55 AM,46.2,42.3,86,30.00,10.0,Calm,Calm,-,N/A,,Clear,0,2012-10-21 05:55:00
2:15 AM,44.8,42.3,91,30.01,10.0,Calm,Calm,-,N/A,,Clear,0,2012-10-21 06:15:00
2:35 AM,43.3,41.5,93,30.02,10.0,Calm,Calm,-,N/A,,Clear,0,2012-10-21 06:35:00
2:55 AM,44.2,42.1,92,30.02,10.0,Calm,Calm,-,N/A,,Clear,0,2012-10-21 06:55:00
3:15 AM,43.9,42.3,94,30.02,10.0,Calm,Calm,-,N/A,,Clear,0,2012-10-21 07:15:00
3:35 AM,43.9,41.9,93,30.03,10.0,Calm,Calm,-,N/A,,Clear,0,2012-10-21 07:35:00
3:55 AM,43.2,41.4,93,30.03,10.0,Calm,Calm,-,N/A,,Clear,0,2012-10-21 07:55:00
4:15 AM,41.9,40.5,95,30.04,10.0,Calm,Calm,-,N/A,,Clear,0,2012-10-21 08:15:00
4:35 AM,41.4,40.5,97,30.05,10.0,Calm,Calm,-,N/A,,Clear,0,2012-10-21 08:35:00
4:55 AM,42.8,41.4,95,30.06,10.0,Calm,Calm,-,N/A,,Clear,0,2012-10-21 08:55:00
5:15 AM,43.3,41.7,94,30.06,10.0,WNW,3.5,-,N/A,,Clear,300,2012-10-21 09:15:00
5:35 AM,43.0,40.6,91,30.07,10.0,Calm,Calm,-,N/A,,Clear,0,2012-10-21 09:35:00
5:55 AM,42.3,41.0,95,30.08,10.0,Calm,Calm,-,N/A,,Clear,0,2012-10-21 09:55:00
6:15 AM,42.1,40.5,94,30.09,10.0,Calm,Calm,-,N/A,,Clear,0,2012-10-21 10:15:00
6:55 AM,40.8,39.7,96,30.11,10.0,Calm,Calm,-,N/A,,Clear,0,2012-10-21 10:55:00
7:15 AM,39.9,39.2,97,30.12,10.0,Calm,Calm,-,N/A,,Clear,0,2012-10-21 11:15:00
7:35 AM,39.2,38.5,97,30.12,10.0,Calm,Calm,-,N/A,,Clear,0,2012-10-21 11:35:00
7:55 AM,39.7,38.7,96,30.13,10.0,Calm,Calm,-,N/A,,Clear,0,2012-10-21 11:55:00
8:15 AM,40.3,39.4,97,30.13,10.0,Calm,Calm,-,N/A,,Clear,0,2012-10-21 12:15:00
8:35 AM,41.9,40.3,94,30.14,10.0,Calm,Calm,-,N/A,,Clear,0,2012-10-21 12:35:00
8:55 AM,45.0,43.2,93,30.15,10.0,Calm,Calm,-,N/A,,Clear,0,2012-10-21 12:55:00
9:15 AM,46.9,44.6,92,30.16,10.0,Calm,Calm,-,N/A,,Clear,0,2012-10-21 13:15:00
9:35 AM,49.8,45.9,86,30.16,10.0,Calm,Calm,-,N/A,,Clear,0,2012-10-21 13:35:00
9:55 AM,53.6,45.9,75,30.17,10.0,Calm,Calm,-,N/A,,Clear,0,2012-10-21 13:55:00
10:15 AM,54.7,43.5,66,30.17,10.0,Calm,Calm,-,N/A,,Clear,0,2012-10-21 14:15:00
10:35 AM,55.2,41.9,61,30.17,10.0,South,3.5,-,N/A,,Clear,190,2012-10-21 14:35:00
10:55 AM,56.3,43.5,62,30.17,10.0,Calm,Calm,-,N/A,,Clear,0,2012-10-21 14:55:00
11:15 AM,57.4,43.3,59,30.17,10.0,Calm,Calm,-,N/A,,Clear,0,2012-10-21 15:15:00
11:35 AM,58.6,42.1,54,30.17,10.0,SSW,4.6,-,N/A,,Clear,210,2012-10-21 15:35:00
11:55 AM,60.6,43.0,52,30.17,10.0,SSE,4.6,-,N/A,,Clear,160,2012-10-21 15:55:00
12:15 PM,61.3,42.8,51,30.17,10.0,Calm,Calm,-,N/A,,Clear,0,2012-10-21 16:15:00
12:35 PM,61.7,42.8,50,30.16,10.0,SE,3.5,-,N/A,,Clear,140,2012-10-21 16:35:00
12:55 PM,63.1,43.7,49,30.15,10.0,Calm,Calm,-,N/A,,Clear,0,2012-10-21 16:55:00
1:15 PM,63.9,43.3,47,30.14,10.0,ESE,3.5,-,N/A,,Clear,120,2012-10-21 17:15:00
1:35 PM,63.9,42.6,46,30.14,10.0,Calm,Calm,-,N/A,,Clear,0,2012-10-21 17:35:00
1:55 PM,65.8,45.0,47,30.13,10.0,Calm,Calm,-,N/A,,Clear,0,2012-10-21 17:55:00
2:15 PM,65.3,43.5,45,30.12,10.0,Calm,Calm,-,N/A,,Clear,0,2012-10-21 18:15:00
2:35 PM,65.3,43.0,44,30.12,10.0,South,4.6,-,N/A,,Clear,170,2012-10-21 18:35:00
2:55 PM,67.5,44.8,44,30.12,10.0,SSE,4.6,-,N/A,,Clear,150,2012-10-21 18:55:00
3:15 PM,66.7,43.9,44,30.11,10.0,South,5.8,-,N/A,,Clear,170,2012-10-21 19:15:00
3:35 PM,68.2,44.4,42,30.11,10.0,SW,4.6,-,N/A,,Clear,220,2012-10-21 19:35:00
3:55 PM,68.4,44.6,42,30.10,10.0,SSE,4.6,-,N/A,,Clear,160,2012-10-21 19:55:00
4:15 PM,68.9,45.0,42,30.10,10.0,SSE,5.8,-,N/A,,Clear,160,2012-10-21 20:15:00
4:35 PM,68.0,44.4,43,30.10,10.0,Calm,Calm,-,N/A,,Clear,0,2012-10-21 20:35:00
4:55 PM,68.5,45.3,43,30.10,10.0,SSW,3.5,-,N/A,,Clear,200,2012-10-21 20:55:00
5:15 PM,68.5,45.1,43,30.11,10.0,South,3.5,-,N/A,,Clear,190,2012-10-21 21:15:00
5:35 PM,68.2,45.9,45,30.11,10.0,South,3.5,-,N/A,,Clear,190,2012-10-21 21:35:00
5:55 PM,67.3,47.5,49,30.11,10.0,South,5.8,-,N/A,,Clear,190,2012-10-21 21:55:00
6:15 PM,65.3,47.3,52,30.12,10.0,South,3.5,-,N/A,,Clear,190,2012-10-21 22:15:00
6:35 PM,64.9,47.3,53,30.12,10.0,SSW,3.5,-,N/A,,Clear,200,2012-10-21 22:35:00
6:55 PM,63.1,47.8,57,30.13,10.0,Calm,Calm,-,N/A,,Clear,0,2012-10-21 22:55:00
7:15 PM,63.7,47.5,56,30.13,10.0,Calm,Calm,-,N/A,,Clear,0,2012-10-21 23:15:00
7:35 PM,62.4,47.8,59,30.14,10.0,Calm,Calm,-,N/A,,Clear,0,2012-10-21 23:35:00
7:55 PM,60.8,47.7,62,30.14,10.0,Calm,Calm,-,N/A,,Clear,0,2012-10-21 23:55:00
8:15 PM,60.3,47.8,64,30.14,10.0,Calm,Calm,-,N/A,,Clear,0,2012-10-22 00:15:00
8:35 PM,59.0,48.4,68,30.14,10.0,East,4.6,-,N/A,,Clear,90,2012-10-22 00:35:00
8:55 PM,57.0,47.8,71,30.14,10.0,Calm,Calm,-,N/A,,Clear,0,2012-10-22 00:55:00
9:15 PM,57.0,47.7,71,30.15,10.0,East,3.5,-,N/A,,Clear,90,2012-10-22 01:15:00
9:35 PM,56.1,47.5,73,30.15,10.0,Calm,Calm,-,N/A,,Clear,0,2012-10-22 01:35:00
9:55 PM,53.6,48.2,82,30.15,10.0,Calm,Calm,-,N/A,,Clear,0,2012-10-22 01:55:00
10:15 PM,52.3,48.0,85,30.15,10.0,Calm,Calm,-,N/A,,Clear,0,2012-10-22 02:15:00
10:35 PM,51.6,48.0,87,30.16,10.0,Calm,Calm,-,N/A,,Clear,0,2012-10-22 02:35:00
10:55 PM,50.0,47.8,92,30.16,10.0,Calm,Calm,-,N/A,,Clear,0,2012-10-22 02:55:00
11:15 PM,49.6,47.3,92,30.16,10.0,Calm,Calm,-,N/A,,Clear,0,2012-10-22 03:15:00
11:35 PM,48.7,47.3,95,30.17,10.0,Calm,Calm,-,N/A,,Clear,0,2012-10-22 03:35:00
11:55 PM,48.2,46.9,95,30.17,10.0,Calm,Calm,-,N/A,,Clear,0,2012-10-22 03:55:00